Lid_Strength_Index
14 14 14 14 14 15 16 13 15 13 13 11 10 10 10 9 9 9 9 9 8 8 8 8 9 9 9 9 9 9 9 9 8 8 8 8 7 7 7 8 8 7 7 8
14 14 14 15 14 13 14 14 14 14 14 11 10 10 10 10 10 10 10 9 9 9 9 9 9 9 9 10 10 10 10 9 8 8 8 8 8 8 8 8 8 8 8 8
15 15 15 16 14 14 13 13 13 15 12 10 10 10 10 10 10 10 9 9 9 9 9 9 9 9 9 10 10 10 10 9 9 9 9 9 8 8 8 8 8 8 8 8
14 15 18 12 12 12 12 12 12 12 11 10 11 10 10 9 9 9 9 9 9 9 9 9 9 10 10 10 10 10 10 10 9 9 9 9 8 8 8 8 8 7 7 8
14 15 13 12 11 13 13 11 9 11 10 10 11 11 9 9 10 10 9 9 9 8 8 9 9 9 10 10 10 10 10 10 10 9 10 9 9 8 8 8 8 7 7 7
15 16 17 11 11 11 11 13 9 10 10 11 12 12 9 8 9 9 10 10 9 9 9 9 8 9 9 9 9 9 9 10 10 10 10 10 9 8 8 8 8 7 8 7
13 14 13 10 11 11 14 10 9 10 10 11 11 9 8 9 9 10 9 9 9 9 8 8 8 9 9 8 8 8 9 9 10 10 10 10 9 9 9 9 9 8 8 8
14 15 16 10 12 12 9 9 9 10 10 10 9 9 9 9 9 9 10 9 9 9 8 7 8 9 8 8 7 8 9 9 9 9 10 11 10 10 9 10 10 9 9 8
12 13 9 10 8 9 9 8 9 9 8 9 9 9 9 9 9 9 9 9 8 8 8 7 7 8 8 7 7 8 9 8 8 9 9 10 10 10 11 11 11 10 10 9
12 10 11 10 9 9 9 9 9 9 9 8 9 8 9 9 9 9 9 9 8 9 9 8 7 8 8 7 9 9 10 9 9 10 10 10 10 10 11 11 11 11 10 10
12 10 11 10 9 9 8 8 9 8 8 8 8 9 9 9 8 8 8 8 8 9 8 8 7 8 8 9 10 11 10 11 11 11 11 10 10 10 10 10 9 10 10 9
11 8 8 8 7 7 8 8 8 8 8 7 8 8 8 8 7 7 8 7 9 9 9 8 8 8 10 10 10 11 12 11 11 11 11 11 11 11 9 9 9 9 9 9
10 8 8 7 7 7 7 7 7 7 7 7 7 7 8 8 7 7 8 8 9 9 9 8 8 9 10 10 11 11 12 11 11 12 11 12 12 12 12 10 9 9 9 9
8 7 8 7 8 6 7 7 7 7 7 7 7 7 7 8 8 8 8 8 8 9 9 9 9 10 9 10 11 12 12 12 12 12 12 12 12 12 12 12 11 10 8 8
7 6 6 6 7 7 7 7 8 8 7 8 7 8 8 8 8 8 7 8 9 9 11 11 11 11 11 11 12 12 12 12 12 12 11 12 12 12 11 11 12 11 9 9
8 7 7 8 7 7 7 7 8 8 7 7 8 8 8 8 8 8 8 9 11 12 11 12 12 11 12 11 12 12 11 12 12 12 12 12 12 12 12 12 12 11 10 10
9 9 8 8 8 8 8 7 7 7 7 8 8 7 7 8 9 9 9 10 10 10 11 11 11 11 11 12 11 11 11 12 12 12 11 11 12 12 11 12 12 11 11 10
7 7 7 7 8 8 7 7 8 8 8 8 7 7 8 9 9 8 9 10 11 11 12 11 11 11 11 11 11 11 11 11 11 11 12 12 11 11 11 11 11 11 11 10
7 7 7 7 7 7 7 7 7 7 7 7 7 8 8 8 8 9 9 11 11 11 11 10 11 11 11 11 11 10 11 11 11 12 12 12 13 12 11 11 11 10 10 10
8 8 8 8 7 8 8 8 7 7 7 6 7 7 8 9 9 10 10 10 10 9 9 10 10 10 10 11 11 10 10 11 11 11 12 12 12 13 12 12 12 11 10 9
10 10 10 10 9 9 9 8 8 8 6 6 7 8 8 8 9 9 10 10 9 10 10 10 10 10 10 10 9 10 10 11 11 12 11 11 11 11 11 11 11 11 11 10
9 9 9 9 9 9 8 8 8 8 8 7 7 7 8 9 9 9 8 8 9 10 9 9 10 10 9 10 9 10 11 11 10 9 9 9 10 10 10 10 10 10 10 10
8 8 8 8 8 8 8 8 8 8 8 7 8 8 8 8 8 9 10 9 9 9 9 10 10 10 10 10 10 10 10 10 10 10 9 9 9 9 9 9 9 9 9 9
7 7 7 7 7 7 7 6 7 7 8 8 7 7 8 8 8 8 8 9 9 10 10 9 9 10 10 9 9 10 10 10 10 9 9 8 8 9 9 9 9 9 9 9
7 7 7 7 7 7 6 7 7 8 8 8 8 7 7 7 8 9 9 9 9 10 10 10 10 9 9 9 9 9 9 9 9 9 8 8 8 9 8 9 9 9 9 9
6 6 6 6 6 6 6 7 8 7 7 8 8 8 9 9 10 10 10 10 10 10 10 9 9 9 9 9 9 9 9 9 9 8 7 8 8 8 8 9 10 10 10 10
6 7 6 6 6 7 7 7 7 7 7 7 8 9 9 10 10 10 10 10 10 10 9 9 9 9 8 9 9 9 9 9 8 8 8 8 8 8 8 9 9 10 11 11